Regional Weather Roundup
Issued by NWS Little Rock, AR

Home | Current Version | Previous Version | Graphics & Text | Print | Product List | Glossary On
Versions: 1 2 3 4 5 6 7 8 9 10 11 12 13 14 15 16 17 18 19 20 21 22 23 24 25 26 27 28 29 30 31 32 33 34 35 36 37 38 39 40 41 42 43 44 45 46 47 48 49 50
000
ASUS44 KLZK 190505
RWRLZK

WEATHER ROUNDUP FOR ARKANSAS
NATIONAL WEATHER SERVICE LITTLE ROCK AR
1100 PM CST THU DEC 18 2014

NOTE: "FAIR" INDICATES FEW OR NO CLOUDS BELOW 12,000 FEET WITH NO
SIGNIFICANT WEATHER AND/OR OBSTRUCTIONS TO VISIBILITY.

ARZ001-003-010-029-190600-
NORTHWEST ARKANSAS

CITY           SKY/WX    TMP DP  RH WIND       PRES   REMARKS
FAYETTEVILLE   CLOUDY    40  39  97 CALM      30.21S FOG
FORT SMITH     CLOUDY    41  38  89 NE7       30.24R
HARRISON       CLOUDY    37  37 100 S5        30.22S FOG
BENTONVILLE    CLOUDY    39  36  87 CALM      30.22S
ROGERS         FOG       39  39 100 CALM      30.22S VSB 3/4
SILOAM SPGS    CLOUDY    39  34  81 CALM      30.23S
HIGHFILL       CLOUDY    40  39  97 CALM      30.21R FOG
$$

ARZ004-005-016-190600-
NORTH CENTRAL ARKANSAS

CITY           SKY/WX    TMP DP  RH WIND       PRES   REMARKS
BATESVILLE     CLOUDY    39  36  87 CALM      30.26S
FLIPPIN        CLOUDY    37  34  87 CALM      30.25R
MTN HOME       CLOUDY    37  37 100 CALM      30.24R FOG
$$

ARZ040-041-190600-
WEST CENTRAL ARKANSAS

CITY           SKY/WX    TMP DP  RH WIND       PRES   REMARKS
MENA           NOT AVBL
MOUNT IDA      CLOUDY    42  40  92 CALM      30.20R
$$

ARZ009-017-025-026-028-190600-
NORTHEAST ARKANSAS

CITY           SKY/WX    TMP DP  RH WIND       PRES   REMARKS
CORNING        CLOUDY    37  36  93 NE5       30.29R FOG
JONESBORO      CLOUDY    40  37  89 NE7       30.27R
NEWPORT        CLOUDY    41  39  92 N3        30.28R
WALNUT RIDGE   MOCLDY    39  34  81 NE7       30.27S
BLYTHEVILLE    CLOUDY    40  37  89 NE5       30.27R
$$

ARZ022-023-033-042-044-190600-
CENTRAL ARKANSAS

CITY           SKY/WX    TMP DP  RH WIND       PRES   REMARKS
LITTLE ROCK    CLOUDY    42  38  85 NE6       30.25S
N LITTLE ROCK  CLOUDY    40  40 100 N6        30.25S
JACKSONVILLE   CLOUDY    41  39  94 NE6       30.25R
SEARCY         CLOUDY    41  39  93 N5        30.27S FOG
HOT SPRINGS    CLOUDY    41  39  93 NE3       30.23R
RUSSELLVILLE   CLOUDY    41  39  93 NE3       30.23F
CLINTON        CLOUDY    41  39  93 CALM      30.27R FOG
$$

ARZ036-190600-
EAST ARKANSAS

CITY           SKY/WX    TMP DP  RH WIND       PRES   REMARKS
WEST MEMPHIS   CLOUDY    42  40  92 E6        30.24S
$$

ARZ050-053-066-070-073-190600-
SOUTHWEST ARKANSAS

CITY           SKY/WX    TMP DP  RH WIND       PRES   REMARKS
ARKADELPHIA    CLOUDY    43  43 100 E5        30.25R
CAMDEN         CLOUDY    45  41  87 CALM      30.23S FOG
TEXARKANA      CLOUDY    44  43  96 E6        30.20S FOG
EL DORADO      CLOUDY    46  45  96 NE8       30.21R FOG
DE QUEEN       CLOUDY    45  43  93 E6        30.20R FOG
$$

ARZ056-057-069-190600-
SOUTHEAST ARKANSAS

CITY           SKY/WX    TMP DP  RH WIND       PRES   REMARKS
PINE BLUFF     CLOUDY    42  40  92 N6        30.25R
STUTTGART      CLOUDY    41  37  87 NE6       30.25R
MONTICELLO     CLOUDY    46  42  86 NE7       30.22S

$$





USA.gov is the U.S. government's official web portal to all federal, state and local government web resources and services.